Weather in Dvorets

Russia / Novgorod Oblast     57°56′33″N   32°59′40″E
temp.,
°C
wind,
m/s
gust,
m/s
humid.,
%
clouds,
%
prec.,
mm/h
press.,
hPa
HPBL,
m
3 march, wed
wed300:00−3wnw399790 0.4 1017440
03:00−2wnw4109680 0.5 1018514
06:00−2wnw4109699 0.2 1017589
09:00−2wnw5993100 0.2 1017744
12:00−1w5991100 0.1 1015734
15:00−1w51087100 0.1 1013931
18:000w51283100 0.1 10101154
21:00+1w61394100 0.4 10081027
4 march, thu
thu400:000w61397100 1.2 1004878
03:00−1nnw4995100 4.3 1004653
06:00−2wnw3896100 0.4 1003531
09:00−4nw2590100 0.4 1003365
12:00−2nnw247473 0.0 1002661
15:00−1nw247178 0.0 1002991
18:00−4nw228569 0.1 100247
21:00−6n129255 0.1 100325
5 march, fri
fri500:00−7nnw249764 0.0 1004162
03:00−7nw279481 0.1 1006426
06:00−7nw379599 0.1 1007470
09:00−7nw3690100 0.3 1008599
12:00−5nw3581100 0.2 1010779
15:00−5nw4577100 0.5 1011902
18:00−6nw3687100 0.2 1012577
21:00−8nw2696100 0.4 1015258
6 march, sat
sat600:00−9nw249799 0.1 1016139
03:00−10nw139796 0.2 1017137
06:00−10wnw149784 0.1 1017189
09:00−9w369292 0.3 1017522
12:00−6w467899 0.1 1016791
15:00−4wsw586885 0.1 10131251
18:00−5sw5127198 0.0 10091223
21:00−6sw8169199 0.6 10041329
7 march, sun
sun700:00−4sw71593100 1.8 9991249
03:00−3sw71694100 4.1 9931126
06:00−2sw81695100 2.5 9881243
09:00−5w71583100 4.9 9861447
12:00−8w81567100 0.9 9881973
15:00−6w91789100 1.4 9881738
18:00−7w91791100 1.6 9881406
21:00−7wnw81493100 3.3 9901357